Regional Weather Roundup
Issued by NWS

Home | Current Version | Previous Version | Text Only | Print | Product List | Glossary On
Versions: 1 2 3 4 5 6 7 8 9 10 11 12 13 14 15 16 17 18 19 20 21 22 23 24 25 26 27 28 29 30 31 32 33 34 35 36 37 38 39 40 41 42 43 44 45 46 47 48 49 50
000
ASUS44 KFWD 240115
RWRTX
NORTH TEXAS HOURLY WEATHER ROUNDUP
NATIONAL WEATHER SERVICE FORT WORTH TX
800 PM CDT SUN JUL 23 2017

NOTE: "FAIR" INDICATES FEW OR NO CLOUDS BELOW 12,000 FEET WITH NO
SIGNIFICANT WEATHER AND/OR OBSTRUCTIONS TO VISIBILITY.

TXZ118-119-240200-
DALLAS/FORT WORTH METROPLEX

CITY           SKY/WX    TMP DP  RH WIND       PRES   REMARKS
DFW AIRPORT    MOCLDY    94  71  47 S8        29.81R HX 101
DALLAS LOVE    MOCLDY    95  68  41 S6        29.82R HX  99
FTW MEACHAM    CLEAR     94  71  47 S10       29.82R HX 101
DAL-EXECUTIVE  CLEAR     90  72  55 S5        29.83R HX  97
FTW-ALLIANCE   MOCLDY    93  70  46 S7G17     29.82R HX  99
FTW-NAS-JRB    CLEAR     95  69  42 S12       29.83R HX 100
FTW-SPINKS     CLEAR     92  70  47 S6        29.85R HX  98
ARLINGTON      CLEAR     93  71  48 SE8       29.83R HX 100
GRAND PRAIRIE  CLEAR     93  66  40 S6        29.83R HX  96
MESQUITE       CLEAR     91  66  43 S5        29.84R HX  94
LANCASTER      CLEAR     91  70  49 S3        29.84R HX  97
$$

TXZ091>094-102>105-117-120-121-131>134-240200-
NORTH CENTRAL TEXAS

CITY           SKY/WX    TMP DP  RH WIND       PRES   REMARKS
SHRMAN/DENISON MOCLDY    84  69  60 NE18G26   29.87R
GAINESVILLE    CLOUDY    89  69  51 E7        29.86R HX  93
BOWIE          CLOUDY    94  68  42 S5        29.83S HX  98
BRIDGEPORT     PTCLDY    90  67  47 SW9       29.85R HX  93
DECATUR        CLEAR     96  67  38 S6        29.84R HX 100
DENTON         PTCLDY    95  72  47 S13       29.82R HX 103
MCKINNEY       PTCLDY    91  73  55 S6        29.83R HX  99
BONHAM         PTCLDY    90  73  58 SE10      29.86R HX  98
GREENVILLE     PTCLDY    91  73  55 SE5       29.87R HX 100
ROCKWALL       CLOUDY    93  71  47 S12       29.85R HX 100
TERRELL        PTCLDY    91  75  59 E6        29.85R HX 101
WAXAHACHIE     CLEAR     88  74  62 CALM      29.86R HX  96
CLEBURNE       PTCLDY    91  68  46 SW5       29.86R HX  95
GRANBURY       CLEAR     92  66  42 SW5       29.85R HX  94
$$

TXZ083>090-098>101-113>116-127>130-139>142-154-155-240200-
WESTERN NORTH TEXAS

CITY           SKY/WX    TMP DP  RH WIND       PRES   REMARKS
WICHITA FALLS  PTCLDY    94  64  37 SE5       29.83R THUNDER HX  95
WF-KICKAPOO    PTCLDY    96  66  36 SE9G17    29.83S HX  99
VERNON         MOCLDY    94  54  25 W17G28    29.83S HX  92
ABILENE        CLOUDY    83  66  56 SW9       29.92R
ABILENE-DYESS  CLOUDY    85  67  53 SW12      29.92R
GRAHAM         MOCLDY    91  65  42 S7        29.83S HX  93
BRECKENRIDGE   CLOUDY    88  65  47 SW8       29.87S HX  90
CISCO          MOCLDY    81  68  65 S9        29.89F
EASTLAND       MOCLDY    83  68  62 SW7       29.89S
RANGER         MOCLDY    81  70  70 SW6       29.89R
MINERAL WELLS  PTCLDY    88  71  57 W6        29.84R HX  94
STEPHENVILLE   CLEAR     87  65  47 CALM      29.89S
COMANCHE       PTCLDY    83  67  59 SW9       29.88S
BROWNWOOD      CLOUDY    82  66  57 S5        29.89F
COLEMAN        CLOUDY    76  68  76 S8        29.90F
$$

TXZ143>147-156>162-174-175-240200-
CENTRAL TEXAS

CITY           SKY/WX    TMP DP  RH WIND       PRES   REMARKS
WACO           CLOUDY    91  70  49 SE8       29.84R HX  96
WACO-TSTC      PTCLDY    82  73  74 SW10      29.84S
WACO-MCGREGOR  CLOUDY    91  68  46 SW6       29.84S HX  95
CORSICANA      CLEAR     89  71  55 SW3       29.86R HX  95
MEXIA          MOCLDY    87  69  54 W5        29.86R HX  91
HEARNE         CLOUDY    92  69  45 W6        29.87R HX  97
CAMERON        CLOUDY    86  69  56 S7        29.85S
TEMPLE         CLOUDY    87  72  60 SW7       29.87S HX  93
KILLEEN        CLOUDY    86  67  54 S3        29.86F
KILLEEN-SKYLRK MOCLDY    85  71  63 W6        29.87S HX  90
FORT HOOD      PTCLDY    85  69  58 W8        29.84S
HAMILTON       CLEAR     84  69  61 SW9       29.90S
LAMPASAS       MOCLDY    81  72  75 SW5       29.89R
$$

TXZ095>097-106>112-122>126-135>138-148>153-164>167-240200-
EAST TEXAS

CITY           SKY/WX    TMP DP  RH WIND       PRES   REMARKS
PARIS            N/A     87  75  67 S3          N/A  HX  96
SULPHUR SPRNGS CLOUDY    87  74  65 SE6       29.89R HX  95
MOUNT PLEASANT MOCLDY    83  73  72 S7        29.89R
GILMER         CLOUDY    80  70  73 S9        29.89R
MINEOLA        CLOUDY    79  73  83 SE6       29.88R
TYLER          CLOUDY    80  76  87 SE12      29.88R
LONGVIEW       CLOUDY    76  74  93 S10       29.90R
MARSHALL         N/A     78  72  81 S9G16     29.93R
ATHENS         CLOUDY    86  72  62 SE10      29.86R HX  92
PALESTINE      CLOUDY    91  75  59 SE10G17   29.88R HX 101
JACKSONVILLE   TSTM      73  72  95 S10       29.94R
HENDERSON      CLOUDY    74  70  89 S7        29.92R
CENTER           N/A     78  75  90 S9        29.92F FOG
NACOGDOCHES    CLOUDY    75  72  88 W7        29.90F THUNDER
LUFKIN         CLOUDY    79  74  84 SE6       29.92R
$$

SUPPLEMENTAL OBSERVATIONS (NWS FORT WORTH AREA)

CITY           SKY/WX    TMP DP  RH WIND       PRES   REMARKS
DENISON DAM      N/A     81  66  61 N23         N/A
CADDO GRASSLND   N/A     88  73  62 SE3         N/A  HX  96
PAT MAYSE LAKE   N/A     90  79  70 SE7         N/A  HX 105
GREENVILLE       N/A     88  72  58 SE5         N/A  HX  94
CEDAR HILL       N/A     91  68  46 SE6         N/A  HX  95
LBJ GRASSLAND    N/A     95  68  41 S5          N/A  HX  99
POSSUM KINGDOM   N/A     90  68  48 SW12G22     N/A  HX  93
GRANBURY         N/A     91  66  43 SW5         N/A  HX  94
COMANCHE         N/A     82  64  54 SW10        N/A
MCGREGOR         N/A     90  64  43 W7          N/A  HX  91
TEMPLE           N/A     86  68  54 S9          N/A
LAKE LIMESTONE   N/A     90  68  48 SE5G13      N/A  HX  93
ATHENS           N/A     84  72  65 SE15        N/A
$$

SUPPLEMENTAL OBSERVATIONS (NWS NORMAN AREA)

CITY           SKY/WX    TMP DP  RH WIND       PRES   REMARKS
GOODLETT         N/A     92  59  32 SW12      29.88R HX  91
ODELL            N/A     91  59  34 SE2       29.87R HX  90
CROWELL          N/A     89  65  44 SW8       29.87S HX  91
KNOX CITY        N/A     82  69  65 SW6       29.89R
SEYMOUR          N/A     91  66  44 SW3       29.84S HX  93
MILLERS CREEK    N/A     91  63  38 SW15G23     N/A  HX  92
$$

SUPPLEMENTAL OBSERVATIONS (NWS SAN ANGELO AREA)

CITY           SKY/WX    TMP DP  RH WIND       PRES   REMARKS
WEINERT          N/A     88  63  43 SW8       29.89S
HASKELL          N/A     85  61  45 SW10      29.89S
THROCKMORTON     N/A     89  67  48 SW12      29.88R HX  92
STAMFORD         N/A     86  67  52 SW5       29.92R
CLYDE            N/A     83  64  53 SW6       29.94R
HAMBY            N/A     88  63  42 SW18G26     N/A
IVIE RESERVOIR   N/A     82  63  51 S12         N/A
COLORADO BEND    N/A     79  63  57 SW5         N/A
$$

SUPPLEMENTAL OBSERVATIONS (NWS SHREVEPORT AREA)

CITY           SKY/WX    TMP DP  RH WIND       PRES   REMARKS
CLARKSVILLE      N/A     84  70  61 SW2         N/A
TEXARKANA        N/A     84  73  70 S3          N/A  HX  91
LINDEN           N/A     81  70  69 SE1G10      N/A
CADDO LAKE       N/A     81  73  78 SW5         N/A
GILMER           N/A     81  70  69 S5          N/A
HENDERSON        N/A     73  70  88 S5G14       N/A
LUFKIN           N/A     81  73  78 MISG        N/A
N SABINE NF      N/A     75  73  94 MISG        N/A
S SABINE NF      N/A     75  72  88 SW2         N/A
$$

SUPPLEMENTAL OBSERVATIONS ARE A COLLECTION OF AUTOMATED INSTRUMENTS
THAT ARE MAINTAINED BY A VARIETY OF FEDERAL AND STATE AGENCIES.
CERTAIN ELEMENTS...SUCH AS HUMIDITY VALUES AND SUSTAINED WIND
SPEEDS...MAY BE APPROXIMATED.





USA.gov is the U.S. government's official web portal to all federal, state and local government web resources and services.